Weather History for El Paso, TX

Change the Weather History Date:

Sunday, June 30, 2013

  Actual Average Record
Temperature  
Mean Temperature 84 °F 84 °F  
Max Temperature 98 °F 96 °F 114 °F (1994)
Min Temperature 69 °F 71 °F 56 °F (1880)
Degree Days  
Heating Degree Days 0 0  
Month to date heating degree days 0 0  
Since 1 June heating degree days 0 0  
Since 1 July heating degree days 2219 2474  
Cooling Degree Days 19 18  
Month to date cooling degree days 663 502  
Year to date cooling degree days 1171 879  
Since 1 June cooling degree days 663 502  
Growing Degree Days 36 (Base 50)    
Moisture  
Dew Point 47 °F    
Average Humidity 30    
Maximum Humidity 42    
Minimum Humidity 17    
Precipitation  
Precipitation 0.04 in 0.04 in 1.82 in (1897)
Month to date precipitation 0.16 0.94  
Year to date precipitation 1.05 2.76  
Snow  
Snow 0.00 in - - ()
Month to date snowfall 0.0  
Since 1 June snowfall 0.0  
Since 1 July snowfall 3.1  
Snow Depth 0.00 in    
Sea Level Pressure  
Sea Level Pressure 29.81 in    
Wind  
Wind Speed 11 mph (ENE)    
Max Wind Speed 44 mph    
Max Gust Speed 55 mph    
Visibility 10 miles    
Events Rain    
T = Trace of Precipitation, MM = Missing Value Source: NWS Daily Summary

Daily Weather History Graph

Daily Weather History Graph

Search for Another Location

Airport:

Trip Planner

Search our weather history database for the weather conditions in past years. The results will help you decide how hot, cold, wet, or windy it might be!

Date:

Astronomy

Jun. 30, 2013 Rise Set
Actual Time 6:03 AM MDT 8:15 PM MDT
Civil Twilight 5:35 AM MDT 8:43 PM MDT
Nautical Twilight 5:00 AM MDT 9:17 PM MDT
Astronomical Twilight 4:23 AM MDT 9:54 PM MDT
Moon 12:46 AM MDT (6/30) 1:47 PM MDT (6/30)
Length of Visible Light 15h 08m
Length of Day
14h 11m
Last Quarter, 45% of the Moon is Illuminated
Jun 30
Last Quarter
Jul 8
New
Jul 15
First Quarter
Jul 22
Full
Jul 29
Last Quarter

Hourly Weather History & Observations

Time (MDT) Temp. Heat Index Dew Point Humidity Pressure Visibility Wind Dir Wind Speed Gust Speed Precip Events Conditions
12:16 AM 87.8 °F - 42.8 °F 21% 30.01 in 10.0 mi NNW 18.4 mph 21.9 mph N/A   Mostly Cloudy
12:25 AM 91.4 °F - 37.4 °F 15% 30.02 in 10.0 mi Variable 5.8 mph 24.2 mph N/A   Mostly Cloudy
12:51 AM 89.1 °F - 41.0 °F 19% 29.76 in 10.0 mi North 9.2 mph - N/A   Mostly Cloudy
1:51 AM 88.0 °F - 42.1 °F 20% 29.77 in 10.0 mi Variable 3.5 mph - N/A   Mostly Cloudy
2:51 AM 86.0 °F - 42.1 °F 21% 29.78 in 10.0 mi NE 11.5 mph - N/A   Mostly Cloudy
3:51 AM 84.0 °F - 46.9 °F 27% 29.79 in 10.0 mi Calm Calm - N/A   Mostly Cloudy
4:51 AM 82.0 °F - 48.9 °F 31% 29.78 in 10.0 mi NE 5.8 mph - N/A   Clear
5:51 AM 80.1 °F - 48.9 °F 34% 29.80 in 10.0 mi East 3.5 mph - N/A   Clear
6:51 AM 80.1 °F - 50.0 °F 35% 29.81 in 10.0 mi Calm Calm - N/A   Scattered Clouds
7:51 AM 81.0 °F - 50.0 °F 34% 29.84 in 10.0 mi ENE 6.9 mph - N/A   Mostly Cloudy
8:51 AM 84.0 °F - 48.9 °F 29% 29.85 in 10.0 mi Variable 3.5 mph - N/A   Scattered Clouds
9:51 AM 82.9 °F - 48.0 °F 29% 29.86 in 10.0 mi East 8.1 mph - N/A   Mostly Cloudy
10:51 AM 86.0 °F - 48.0 °F 27% 29.84 in 10.0 mi Variable 6.9 mph - N/A   Mostly Cloudy
11:51 AM 87.1 °F - 46.9 °F 25% 29.83 in 10.0 mi SE 5.8 mph - N/A   Mostly Cloudy
12:51 PM 91.9 °F - 46.0 °F 21% 29.78 in 10.0 mi SE 11.5 mph 17.3 mph N/A   Scattered Clouds
1:51 PM 93.9 °F - 45.0 °F 18% 29.76 in 10.0 mi SE 9.2 mph - N/A   Scattered Clouds
2:51 PM 95.0 °F - 44.1 °F 17% 29.74 in 10.0 mi Variable 5.8 mph - N/A   Scattered Clouds
3:51 PM 96.1 °F - 44.1 °F 17% 29.71 in 10.0 mi Variable 4.6 mph - N/A   Scattered Clouds
4:51 PM 97.0 °F - 44.1 °F 16% 29.68 in 10.0 mi SE 12.7 mph 20.7 mph N/A   Scattered Clouds
5:51 PM 97.0 °F - 44.1 °F 16% 29.66 in 10.0 mi East 11.5 mph - N/A   Scattered Clouds
6:51 PM 96.1 °F - 44.1 °F 17% 29.66 in 10.0 mi East 11.5 mph - N/A   Scattered Clouds
7:51 PM 93.9 °F - 44.1 °F 18% 29.69 in 10.0 mi East 12.7 mph - N/A   Scattered Clouds
8:51 PM 91.0 °F - 45.0 °F 20% 29.71 in 10.0 mi ESE 13.8 mph - N/A   Mostly Cloudy
9:51 PM 89.1 °F - 48.0 °F 24% 29.75 in 10.0 mi East 13.8 mph 25.3 mph N/A   Mostly Cloudy
10:06 PM 87.8 °F - 50.0 °F 27% 30.03 in 10.0 mi North 28.8 mph 40.3 mph N/A   Mostly Cloudy
10:13 PM 82.4 °F 81.7 °F 55.4 °F 39% 30.04 in 2.5 mi North 24.2 mph 40.3 mph N/A   Widespread Dust
10:41 PM 82.4 °F 81.7 °F 55.4 °F 39% 30.06 in 7.0 mi NNE 26.5 mph 34.5 mph N/A   Overcast
10:51 PM 82.0 °F 81.4 °F 55.0 °F 39% 29.84 in 8.0 mi NNE 29.9 mph 36.8 mph 0.00 in Rain Light Rain
11:19 PM 75.2 °F - 59.0 °F 57% 30.05 in 6.0 mi East 26.5 mph 36.8 mph 0.03 in Rain Light Rain
11:51 PM 79.0 °F - 54.0 °F 42% 29.82 in 10.0 mi East 24.2 mph 34.5 mph 0.04 in Rain Light Rain